GLOBALSTAR M026 [+]

Last updated on Wed May 04 2016 07:38:51 GMT+0000 (Coordinated Universal Time)

1 25873U 99041B 16125.22214975 -.00000079 00000-0 13766-3 0 9998 2 25873 52.0034 21.7010 0003725 79.0644 97.8100 12.62255397773889

Satellite not in orbit

GLOBALSTAR M026 [+]